Regional Weather Roundup
Issued by NWS

Home | Current Version | Previous Version | Text Only | Print | Product List | Glossary Off
Versions: 1 2 3 4 5 6 7 8 9 10 11 12 13 14 15 16 17 18 19 20 21 22 23 24 25 26 27 28 29 30 31 32 33 34 35 36 37 38 39 40 41 42 43 44 45 46 47 48 49 50

000
ASUS43 KLMK 181310
RWRKY
KENTUCKY REGIONAL WEATHER ROUNDUP
NATIONAL WEATHER SERVICE LOUISVILLE KY
800 AM EST WED JAN 18 2017

NOTE "FAIR" INDICATES FEW OR NO CLOUDS BELOW 12,000 FEET
WITH NO SIGNIFICANT WEATHER AND/OR OBSTRUCTIONS TO VISIBILITY.

KYZ001>023-026-027-061>063-070>075-181400-
WESTERN AND SOUTH CENTRAL KENTUCKY

CITY           SKY/WX    TMP DP  RH WIND       PRES   REMARKS
PADUCAH        CLOUDY    42  36  79 N6        30.22R
HENDERSON      CLOUDY    39  34  81 W7        30.23R WCI  34
OWENSBORO      CLOUDY    40  37  89 NW6       30.23R
HOPKINSVILLE   CLOUDY    43  40  86 CALM      30.21R
BOWLING GREEN  CLOUDY    45  39  79 CALM      30.22R
GLASGOW        CLOUDY    42  38  86 CALM      30.21R
$$

KYZ024-025-028>034-038-045-046-053-181400-
NORTH CENTRAL KENTUCKY

CITY           SKY/WX    TMP DP  RH WIND       PRES   REMARKS
LOUISVILLE/SDF CLOUDY    42  36  79 W8        30.20R
LOUISVILLE/LOU CLOUDY    42  36  79 W8        30.21R
FORT KNOX      CLOUDY    40  36  85 NW6       30.18F
$$

KYZ035>037-039>044-047>052-055>060-089>105-181400-
NORTHEAST KENTUCKY

CITY           SKY/WX    TMP DP  RH WIND       PRES   REMARKS
LEXINGTON      CLOUDY    41  37  86 W9        30.18R
COVINGTON      CLOUDY    37  35  92 W12       30.16R WCI  29
FRANKFORT      CLOUDY    42  33  70 W5        30.18R
$$

KYZ054-064>069-076>088-106>120-181400-
SOUTHEAST KENTUCKY

CITY           SKY/WX    TMP DP  RH WIND       PRES   REMARKS
JACKSON        CLOUDY    40  36  86 VRB6      30.16R
LONDON         CLOUDY    42  37  82 NW9       30.18R
SOMERSET       CLOUDY    41  36  81 NW8       30.22R
MIDDLESBORO    CLOUDY    48  42  80 NW12      30.17R
MONTICELLO     CLOUDY    43  40  89 VRB6      30.22R
$$




USA.gov is the U.S. government's official web portal to all federal, state and local government web resources and services.